This is the latest recevied weather packets stored in our database for station/object N4XWC. If no packets are shown the sender has not sent any weather packets the latest 10 day(s).
| Time | Temp. | Humidity | Pressure | Rain* | Wind** | Luminosity | Snow |
|---|---|---|---|---|---|---|---|
| 1777393037 | 17.78° C | 100% | 1019.6 hPa | 1.02 mm | - | - | - |
| 1777392734 | 17.78° C | 100% | 1019.6 hPa | 1.02 mm | - | - | - |
| 1777392438 | 17.78° C | 100% | 1019.6 hPa | 1.02 mm | - | - | - |
| 1777392202 | 17.78° C | 100% | 1019.6 hPa | 1.02 mm | - | - | - |
| 1777392134 | 17.78° C | 100% | 1019.6 hPa | 1.02 mm | - | - | - |
| 1777391838 | 17.78° C | 100% | 1020 hPa | 1.02 mm | - | - | - |
| 1777391601 | 17.78° C | 100% | 1020 hPa | 1.02 mm | - | - | - |
| 1777391536 | 17.78° C | 100% | 1020 hPa | 1.02 mm | - | - | - |
| 1777391238 | 17.78° C | 100% | 1020 hPa | 1.27 mm | - | - | - |
| 1777390934 | 17.78° C | 100% | 1019.2 hPa | 1.27 mm | - | - | - |
| 1777390638 | 17.78° C | 100% | 1019.2 hPa | 1.27 mm | - | - | - |
| 1777390377 | 17.78° C | 100% | 1019.2 hPa | 1.27 mm | - | - | - |
| 1777390335 | 17.78° C | 100% | 1019.2 hPa | 1.27 mm | - | - | - |
| 1777390038 | 18.33° C | 100% | 1020.9 hPa | 1.27 mm | - | - | - |
| 1777389738 | 18.33° C | 100% | 1020.9 hPa | 1.02 mm | - | - | - |
| 1777389438 | 18.33° C | 100% | 1020.9 hPa | 1.02 mm | - | - | - |
| 1777389194 | 18.33° C | 100% | 1020.4 hPa | 1.02 mm | - | - | - |
| 1777389135 | 18.33° C | 100% | 1020.4 hPa | 1.02 mm | - | - | - |
| 1777388839 | 18.89° C | 100% | 1020.4 hPa | 1.52 mm | - | - | - |
| 1777388612 | 18.89° C | 100% | 1020.4 hPa | 1.52 mm | - | - | - |
| 1777388536 | 18.89° C | 100% | 1020.4 hPa | 1.52 mm | - | - | - |
| 1777388238 | 18.89° C | 100% | 1019.5 hPa | 2.03 mm | - | - | - |
| 1777387936 | 18.89° C | 100% | 1019.5 hPa | 2.03 mm | - | - | - |
| 1777387637 | 18.89° C | 100% | 1019.5 hPa | 2.29 mm | - | - | - |
| 1777387380 | 18.89° C | 100% | 1020.3 hPa | 2.03 mm | - | - | - |
* Rain latest hour (hover to see other rain measurements)
** Current wind speed in m/s (hover to see current wind gust speed)